Location: São Paulo
(23.5507°S, 46.6334°W)
Time: 16:11:58
(UTC-03:00)

A-11 Canister half - All Passes

Search period start: 18 February 2026 00:00
Search period end: 28 February 2026 00:00
Orbit: 1525 x 1682 km, 47.3° (Epoch: 18 February)

Date Brightness Start Highest point End Pass type
(mag) Time Alt. Az. Time Alt. Az. Time Alt. Az.
18 Feb - 01:00:04 10° N 01:07:07 23° NE 01:14:19 10° ESE visible
18 Feb - 03:01:32 10° NW 03:11:26 85° SW 03:21:40 10° SE visible
18 Feb - 05:09:21 10° W 05:17:44 29° SSW 05:26:15 10° SSE visible
18 Feb - 07:20:20 10° SW 07:26:31 17° S 07:32:42 10° SE daylight
18 Feb - 09:26:53 10° SSW 09:35:21 28° SSE 09:43:37 10° E daylight
18 Feb - 11:31:30 10° SW 11:41:40 84° SE 11:51:28 10° NE daylight
18 Feb - 13:38:45 10° WSW 13:45:58 23° NW 13:53:03 10° N daylight
19 Feb - 00:38:40 10° NNE 00:45:19 21° NE 00:52:06 10° E visible
19 Feb - 02:39:42 10° NW 02:49:34 89° SW 02:59:47 10° SE visible
19 Feb - 04:47:16 10° W 04:55:44 30° SSW 05:04:24 10° SSE visible
19 Feb - 06:58:15 10° SW 07:04:27 17° S 07:10:39 10° SE daylight
19 Feb - 09:05:02 10° SSW 09:13:21 27° SSE 09:21:31 10° E daylight
19 Feb - 11:09:36 10° SW 11:19:48 79° SE 11:29:37 10° NE daylight
19 Feb - 13:16:35 10° WSW 13:24:10 25° NW 13:31:35 10° N daylight
20 Feb - 00:17:18 10° NNE 00:23:31 19° ENE 00:29:49 10° E visible
20 Feb - 02:17:53 10° NW 02:27:42 86° NE 02:37:53 10° SE visible
20 Feb - 04:25:10 10° W 04:33:45 31° SSW 04:42:33 10° SSE visible
20 Feb - 06:36:09 10° SW 06:42:22 17° S 06:48:36 10° SE daylight
20 Feb - 08:43:09 10° SSW 08:51:21 26° SSE 08:59:23 10° ESE daylight
20 Feb - 10:47:44 10° SW 10:57:55 75° SE 11:07:45 10° NE daylight
20 Feb - 12:54:28 10° WSW 13:02:22 27° NW 13:10:05 10° N daylight
20 Feb - 23:56:00 10° NNE 00:01:42 17° ENE 00:07:30 10° E visible
21 Feb - 01:56:05 10° NW 02:05:51 82° NE 02:16:00 10° SE visible
21 Feb - 04:03:06 10° W 04:11:47 33° SSW 04:20:41 10° SSE visible
21 Feb - 06:14:03 10° SW 06:20:18 17° S 06:26:34 10° SE daylight
21 Feb - 08:21:17 10° SSW 08:29:21 25° SSE 08:37:15 10° ESE daylight
21 Feb - 10:25:52 10° SW 10:36:02 72° SE 10:45:52 10° NE daylight
21 Feb - 12:32:21 10° WSW 12:40:33 29° NW 12:48:34 10° N daylight
21 Feb - 23:34:48 10° NNE 23:39:55 15° ENE 23:45:05 10° E night (unlit)
22 Feb - 01:34:16 10° NW 01:43:59 77° NE 01:54:05 10° SE visible
22 Feb - 03:41:02 10° W 03:49:49 34° SSW 03:58:50 10° SSE visible
22 Feb - 05:51:56 10° SW 05:58:14 18° S 06:04:33 10° SSE daylight
22 Feb - 07:59:25 10° SSW 08:07:19 24° SSE 08:15:08 10° ESE daylight
22 Feb - 10:03:59 10° SW 10:14:09 68° SE 10:23:58 10° NE daylight
22 Feb - 12:10:16 10° WSW 12:18:44 32° NW 12:27:00 10° N daylight
22 Feb - 23:13:43 10° NNE 23:18:07 14° ENE 23:22:33 10° E night (unlit)
23 Feb - 01:12:29 10° NW 01:22:09 73° NE 01:32:11 10° SE visible
23 Feb - 03:18:59 10° W 03:27:51 36° SSW 03:36:58 10° SSE visible
23 Feb - 05:29:49 10° SW 05:36:10 18° S 05:42:32 10° SSE visible
23 Feb - 07:37:32 10° SSW 07:45:18 24° SSE 07:52:59 10° ESE daylight
23 Feb - 09:42:07 10° SW 09:52:15 64° SE 10:02:04 10° ENE daylight
23 Feb - 11:48:14 10° WSW 11:56:56 34° NW 12:05:25 10° N daylight
23 Feb - 22:52:49 10° NE 22:56:18 12° ENE 22:59:50 10° E night (unlit)
24 Feb - 00:50:43 10° NNW 01:00:18 69° NE 01:10:16 10° SE visible
24 Feb - 02:56:57 10° W 03:05:53 38° SSW 03:15:07 10° SSE visible
24 Feb - 05:07:41 10° SW 05:14:05 18° S 05:20:32 10° SSE visible
24 Feb - 07:15:39 10° SSW 07:23:16 23° SSE 07:30:50 10° ESE daylight
24 Feb - 09:20:16 10° SW 09:30:22 61° SE 09:40:09 10° ENE daylight
24 Feb - 11:26:11 10° WSW 11:35:07 37° NW 11:43:49 10° N daylight
24 Feb - 22:32:20 10° NE 22:34:30 11° ENE 22:36:41 10° ENE night (unlit)
25 Feb - 00:28:58 10° NNW 00:38:28 64° NE 00:48:20 10° SE visible
25 Feb - 02:34:55 10° W 02:43:57 39° SSW 02:53:16 10° SSE visible
25 Feb - 04:45:34 10° SW 04:52:01 18° S 04:58:33 10° SSE visible
25 Feb - 06:53:46 10° SSW 07:01:15 22° SSE 07:08:40 10° ESE daylight
25 Feb - 08:58:25 10° SW 09:08:27 58° SE 09:18:13 10° ENE daylight
25 Feb - 11:04:09 10° WSW 11:13:17 40° NW 11:22:12 10° NNE daylight
26 Feb - 00:07:14 10° NNW 00:16:38 60° NE 00:26:24 10° SE visible
26 Feb - 02:12:55 10° WNW 02:22:00 41° SW 02:31:25 10° SE visible
26 Feb - 04:23:25 10° SW 04:29:58 19° S 04:36:35 10° SSE visible
26 Feb - 06:31:53 10° SSW 06:39:12 21° SSE 06:46:31 10° ESE daylight
26 Feb - 08:36:34 10° SW 08:46:32 55° SE 08:56:16 10° ENE daylight
26 Feb - 10:42:09 10° WSW 10:51:28 43° NW 11:00:32 10° NNE daylight
26 Feb - 23:45:30 10° NNW 23:54:48 57° NE 00:04:27 10° SE visible
27 Feb - 01:50:55 10° WNW 02:00:04 43° SW 02:09:34 10° SE visible
27 Feb - 04:01:17 10° SW 04:07:54 19° SSW 04:14:37 10° SSE visible
27 Feb - 06:09:58 10° SSW 06:17:10 21° SSE 06:24:20 10° ESE daylight
27 Feb - 08:14:42 10° SW 08:24:36 52° SE 08:34:17 10° ENE daylight
27 Feb - 10:20:10 10° WSW 10:29:38 46° NW 10:38:52 10° NNE daylight
27 Feb - 23:23:47 10° NNW 23:32:59 53° NE 23:42:31 10° ESE visible
